(72) Feronia
ephemeris date magn radius delta ra dec elong phase
Today15 Sep 202513.62.068 AU2.307 AU15h37m-15°22'63.7°25.8°
Opposition9 Nov 202611.62.263 AU1.273 AU03h02m+13°55'176.8°1.4°
(72) Feronia - 2025-09-15
astro.vanbuitenen.nl


 
-1 year
-1 month
-1 day
Now
+1 day
+1 month
+1 year

The interactive orbit chart above shows the body's path through the solar system and its position at the given date. Green and blue lines are shown perpendicular to the ecliptic plane: Green if the path is above the ecliptic plane, blue if it is below. (Left-click and drag to rotate the view; Right-click and drag to move the view; Use scroll wheel to zoom in our out.)

The orbital elements of Feronia are:

            e (Eccentricity)                : 0.1214213
            a (Semimajor axis)              : 2.2660464
            i (Inclination)                 : 5.41810
            Ω (Longitude of ascending node) : 207.93462
            ω (Argument of perihelion)      : 102.75320
            M (Mean anomaly)                : 282.48196
            Epoch                           : 2025 May 05

            L (Longitude of perihelion)     : 130.74317
            B (Latitude of perihelion)      : 5.28405
            P (Orbital period in years)     : 3.41            
        

The light curve chart below shows the estimated development of the minor planet's magnitude.


The all-sky chart below shows the path of the minor planet over the same period as the light curve. The current position is marked yellow.





The following chart shows the path of the minor planet in the next few days. The field of view is optimized for (~10x50) binoculars and finderscopes. A more printer-friendly version of the same chart can be found below.




Ephemerides:
Date       Time       RA (2000)    DEC (2000)    delta   radius  elong  phase   PA    magn
2025-09-15 00:00 UT   15 37 13.4   -15 22 22     2.307    2.068   63.7   25.8   102   13.6 
2025-09-15 18:14 UT   15 38 38.2   -15 27 13     2.314    2.067   63.3   25.8   101   13.6 
2025-09-16 00:00 UT   15 39 05.1   -15 28 45     2.316    2.067   63.2   25.7   101   13.6 
2025-09-17 00:00 UT   15 40 57.4   -15 35 05     2.325    2.066   62.7   25.6   101   13.6 
2025-09-18 00:00 UT   15 42 50.4   -15 41 23     2.333    2.065   62.1   25.5   101   13.7 
2025-09-19 00:00 UT   15 44 44.1   -15 47 39     2.342    2.064   61.6   25.4   101   13.7 
2025-09-20 00:00 UT   15 46 38.4   -15 53 52     2.350    2.063   61.1   25.2   100   13.7 
2025-09-21 00:00 UT   15 48 33.4   -16 00 02     2.359    2.062   60.6   25.1   100   13.7 
2025-09-22 00:00 UT   15 50 29.0   -16 06 09     2.368    2.061   60.1   25.0   100   13.7 
2025-09-23 00:00 UT   15 52 25.2   -16 12 12     2.376    2.060   59.6   24.9   100   13.7 
2025-09-24 00:00 UT   15 54 22.1   -16 18 13     2.384    2.059   59.1   24.7   100   13.7 
2025-09-25 00:00 UT   15 56 19.6   -16 24 11     2.393    2.058   58.6   24.6    99   13.7 
2025-09-26 00:00 UT   15 58 17.7   -16 30 05     2.401    2.057   58.1   24.5    99   13.7 
2025-09-27 00:00 UT   16 00 16.4   -16 35 55     2.409    2.056   57.6   24.3    99   13.7 
2025-09-28 00:00 UT   16 02 15.7   -16 41 42     2.418    2.055   57.2   24.2    99   13.7 
2025-09-29 00:00 UT   16 04 15.6   -16 47 25     2.426    2.054   56.7   24.1    99   13.7 
2025-09-30 00:00 UT   16 06 16.1   -16 53 03     2.434    2.053   56.2   23.9    98   13.7 
2025-10-01 00:00 UT   16 08 17.2   -16 58 38     2.442    2.052   55.7   23.8    98   13.7 
2025-10-02 00:00 UT   16 10 18.8   -17 04 09     2.450    2.051   55.2   23.6    98   13.7 


    Terminology:
            
    delta:  distance between minor planet and earth in AU
    radius: distance between minor planet and sun in AU
    magn:   magnitude (brightness) estimate    
    ra:     right ascension in hours (24h = 360deg)
    dec:    declination in degrees
    elong:  elongation in degrees (angle sun-earth-minor planet)    
    phase:  phase angle in degrees (angle sun-minor planet-earth)        
    AU:     Astronomical Unit (mean distance between earth and sun: 149597870.7 km
    

Orbital elements provided by the MPC (Minor Planet Center).
Calculations by a modified version of AAPlus, a C# implementation of the AA+ project by PJ Naughter from the algorithms presented in the book "Astronomical Algorithms" by Jean Meeus.
NGC2000 dso catalog and star labels from VizieR as provided by the Strasbourg astronomical Data Center.
Tycho2 catalog from the ESO archive.